Track STARLINK-2505 now! 10-day predictions STARLINK-2505 is classified as:
1 48411U 21038BL 22183.38566658 .00000812 00000-0 73398-4 0 9990 2 48411 53.0541 215.4190 0001386 71.0022 289.1117 15.06401977 65099